TimeMST,TemperatureF,Dew PointF,Humidity,Sea Level PressureIn,VisibilityMPH,Wind Direction,Wind SpeedMPH,Gust SpeedMPH,PrecipitationIn,Events,Conditions,WindDirDegrees,DateUTC
12:56 AM,43.0,19.0,38,30.01,-9999.0,WSW,11.5,-,N/A,,Unknown,240,2012-11-17 07:56:00
1:56 AM,43.0,19.0,38,30.01,-9999.0,SW,12.7,-,N/A,,Unknown,230,2012-11-17 08:56:00
2:56 AM,42.1,19.0,40,30.00,-9999.0,WSW,15.0,-,N/A,,Unknown,240,2012-11-17 09:56:00
3:56 AM,37.0,19.0,48,30.02,-9999.0,WSW,9.2,-,N/A,,Unknown,240,2012-11-17 10:56:00
4:56 AM,37.0,19.0,48,30.04,-9999.0,WSW,10.4,-,N/A,,Unknown,250,2012-11-17 11:56:00
5:56 AM,34.0,19.0,54,30.07,-9999.0,Variable,4.6,-,N/A,,Unknown,0,2012-11-17 12:56:00
6:56 AM,37.9,19.0,47,30.07,-9999.0,WSW,11.5,-,N/A,,Unknown,250,2012-11-17 13:56:00
7:56 AM,44.1,21.0,40,30.08,-9999.0,WSW,6.9,-,N/A,,Unknown,240,2012-11-17 14:56:00
8:56 AM,61.0,25.0,25,30.04,-9999.0,NW,4.6,-,N/A,,Unknown,320,2012-11-17 15:56:00
9:56 AM,66.9,21.0,17,30.04,-9999.0,North,8.1,-,N/A,,Unknown,350,2012-11-17 16:56:00
10:56 AM,69.1,21.0,16,30.02,-9999.0,Variable,3.5,-,N/A,,Unknown,0,2012-11-17 17:56:00
11:56 AM,70.0,21.0,16,29.99,-9999.0,Calm,Calm,-,N/A,,Unknown,0,2012-11-17 18:56:00
12:56 PM,69.1,21.0,16,29.97,-9999.0,Calm,Calm,-,N/A,,Unknown,0,2012-11-17 19:56:00
1:56 PM,70.0,21.0,16,29.95,-9999.0,ESE,6.9,-,N/A,,Unknown,110,2012-11-17 20:56:00
2:56 PM,70.0,21.9,16,29.95,-9999.0,SSE,11.5,-,N/A,,Unknown,160,2012-11-17 21:56:00
3:56 PM,64.9,23.0,20,29.98,-9999.0,South,13.8,-,N/A,,Unknown,180,2012-11-17 22:56:00
4:56 PM,55.9,28.9,36,30.00,-9999.0,South,11.5,-,N/A,,Unknown,190,2012-11-17 23:56:00
5:56 PM,52.0,33.1,49,30.02,-9999.0,SSW,16.1,-,N/A,,Unknown,200,2012-11-18 00:56:00
6:56 PM,50.0,33.1,52,30.02,-9999.0,South,16.1,-,N/A,,Unknown,190,2012-11-18 01:56:00
7:56 PM,46.9,33.1,59,30.01,-9999.0,South,13.8,-,N/A,,Unknown,190,2012-11-18 02:56:00
8:56 PM,44.1,32.0,63,29.96,-9999.0,SSW,13.8,-,N/A,,Unknown,200,2012-11-18 03:56:00
9:56 PM,43.0,32.0,65,29.94,-9999.0,SSW,11.5,-,N/A,,Unknown,210,2012-11-18 04:56:00
10:56 PM,42.1,32.0,67,29.91,-9999.0,SW,16.1,-,N/A,,Unknown,220,2012-11-18 05:56:00
11:56 PM,42.1,32.0,67,29.90,-9999.0,SSW,17.3,-,N/A,,Unknown,210,2012-11-18 06:56:00